Franklin, PA

10:45 AM EST on December 06, 2019 (GMT -0500)
Venango Regional

Weather History for KFKL - August, 2019

Change the Weather History Date:

Monday, August 26, 2019

  Actual Average Record
Temperature  
Mean Temperature 62 °F -  
Max Temperature 72 °F 80 °F 95 °F (1932)
Min Temperature 53 °F 55 °F 41 °F (1942)
Degree Days  
Heating Degree Days 3    
Growing Degree Days 12 (Base 50)    
Moisture  
Dew Point 54 °F    
Average Humidity 74    
Maximum Humidity 93    
Minimum Humidity 55    
Precipitation  
Precipitation 0.00 in - - ()
Sea Level Pressure  
Sea Level Pressure 30.13 in    
Wind  
Wind Speed 8 mph (SE)    
Max Wind Speed 15 mph    
Max Gust Speed 22 mph    
Visibility 10 miles    
Events Rain    
Averages and records for this station are not official NWS values.
T = Trace of Precipitation, MM = Missing Value Source: NWS Daily Summary

Daily Weather History Graph

Daily Weather History Graph

Search for Another Location

Airport or City:

Astronomy

Aug. 26, 2019 Rise Set
Actual Time 6:39 AM EDT 8:02 PM EDT
Civil Twilight 6:10 AM EDT 8:31 PM EDT
Nautical Twilight 5:35 AM EDT 9:05 PM EDT
Astronomical Twilight 4:59 AM EDT 9:42 PM EDT
Moon 2:00 AM EDT (8/26) 5:26 PM EDT (8/26)
Length of Visible Light 14h 20m
Length of Day
13h 22m
Waning Crescent, 19% of the Moon is Illuminated
Aug 26
Waning Crescent
Aug 30
New
Sep 5
First Quarter
Sep 14
Full
Sep 21
Last Quarter

Hourly Weather History & Observations

Time (EDT) Temp. Dew Point Humidity Pressure Visibility Wind Dir Wind Speed Gust Speed Precip Events Conditions
12:56 AM 55.9 °F 52.0 °F 87% 30.20 in 10.0 mi East 3.5 mph - N/A   Clear
1:56 AM 55.0 °F 52.0 °F 89% 30.20 in 10.0 mi ESE 3.5 mph - N/A   Clear
2:56 AM 54.0 °F 52.0 °F 93% 30.20 in 10.0 mi East 4.6 mph - N/A   Clear
3:56 AM 54.0 °F 52.0 °F 93% 30.19 in 10.0 mi East 5.8 mph - N/A   Clear
4:56 AM 54.0 °F 52.0 °F 93% 30.18 in 10.0 mi ESE 5.8 mph - N/A   Clear
5:56 AM 53.1 °F 51.1 °F 93% 30.18 in 10.0 mi ESE 5.8 mph - N/A   Clear
6:56 AM 54.0 °F 52.0 °F 93% 30.19 in 10.0 mi ESE 9.2 mph - N/A   Clear
7:56 AM 55.9 °F 53.1 °F 90% 30.21 in 10.0 mi ESE 9.2 mph - N/A   Clear
8:56 AM 59.0 °F 54.0 °F 83% 30.20 in 10.0 mi SE 12.7 mph - N/A   Clear
9:56 AM 63.0 °F 55.0 °F 75% 30.19 in 10.0 mi SE 11.5 mph 21.9 mph N/A   Clear
10:56 AM 66.0 °F 55.0 °F 68% 30.18 in 10.0 mi SSE 11.5 mph 19.6 mph N/A   Clear
11:56 AM 69.1 °F 55.0 °F 61% 30.15 in 10.0 mi South 12.7 mph 18.4 mph N/A   Partly Cloudy
12:56 PM 69.1 °F 54.0 °F 58% 30.13 in 10.0 mi SSE 11.5 mph - N/A   Mostly Cloudy
1:56 PM 70.0 °F 54.0 °F 57% 30.11 in 10.0 mi ESE 13.8 mph - N/A   Mostly Cloudy
2:56 PM 71.1 °F 54.0 °F 55% 30.09 in 10.0 mi SE 12.7 mph 19.6 mph N/A   Mostly Cloudy
3:56 PM 71.1 °F 55.0 °F 57% 30.08 in 10.0 mi SSE 15.0 mph 20.7 mph N/A   Mostly Cloudy
4:56 PM 69.1 °F 54.0 °F 58% 30.06 in 10.0 mi SSE 8.1 mph - N/A   Partly Cloudy
5:56 PM 69.1 °F 54.0 °F 58% 30.07 in 10.0 mi SSE 11.5 mph - N/A   Clear
6:56 PM 66.9 °F 54.0 °F 63% 30.06 in 10.0 mi SSE 8.1 mph - N/A   Partly Cloudy
7:56 PM 64.9 °F 55.0 °F 70% 30.05 in 10.0 mi ESE 8.1 mph - N/A   Clear
8:56 PM 64.0 °F 55.0 °F 73% 30.04 in 10.0 mi ESE 9.2 mph - N/A   Clear
9:56 PM 64.9 °F 55.0 °F 70% 30.03 in 10.0 mi SSE 10.4 mph - N/A   Clear
10:56 PM 64.0 °F 55.0 °F 73% 30.02 in 10.0 mi SE 11.5 mph - N/A   Clear
11:56 PM 64.0 °F 55.9 °F 75% 30.01 in 10.0 mi SSE 11.5 mph - 0.00 in Rain Light Rain